World > North America > United States > New York

Hourly Scotts Corners, NY Regional Weather

Feedback E-mail the Weather

Latest News

Scotts Corners, NY Weather Maps

°F °C°F °C
Scotts Corners Weather Map
UTC Time: 5/23/2022, 03:28
Your Time:

Scotts Corners, NY Regional Weather

Expires:202205230400;;422675
ASUS41 KALY 230310
RWRALY

NEW YORK STATE HOURLY WEATHER ROUNDUP
NATIONAL WEATHER SERVICE ALBANY NY
1100 PM EDT SUN MAY 22 2022

NOTE: "FAIR" INDICATES FEW OR NO CLOUDS BELOW 12,000 FEET WITH NO
SIGNIFICANT WEATHER AND/OR NO OBSTRUCTIONS TO VISIBILITY.


NYZ032-033-038>043-046>054-057>066-NYZ062>081-082-084-230400-
EAST

  
CITY           SKY/WX    TMP DP  RH WIND       PRES   REMARKS
ALBANY         CLOUDY    62  55  77 W15G26    30.09R                  
GLENS FALLS    MOCLDY    64  53  67 NW14G29   30.06R                  
POUGHKEEPSIE   PTCLDY    70  67  90 NW3       30.04R                  
NEWBURGH       MOCLDY    70  68  94 CALM      30.05R                  
MONTGOMERY     CLOUDY    68  62  81 NW8       30.05R                  
WHITE PLAINS   PTCLDY    70  66  87 NW6       30.02R                  
ISLIP          MOCLDY    71  67  87 N12       30.01R                  
NEW YORK CITY  PTCLDY    76  63  64 N12       30.02R                  
CENTRAL PARK   PTCLDY    77  64  64 CALM      30.06R                  
$$


SKY/WX - Weather  TMP - Temperature  DP - Dew Point  RH - Humidity
WIND - Wind Direction/Speed PRES - Barometric Pressure VSB - Visibility
WCI - Wind Chill Index E13G22 Wind - East Wind 13 mph/Gusts of 22 mph

Trending Headlines

Scotts Corners Radar Loop



Scotts Corners Quick Facts


National Two Day Weather Forecast


E-mail the Scotts Corners Weather Forecast

Voice your opinion or tell us about page issues...